Wind_Speed
38 34 36 36 38 39 39 40 40 36 36 35 34 37 36 43 37 33 29 29 33 31 31 26 29 30 34 26 31 31 33 39 50 57 66 64 61 60
44 39 39 40 43 44 46 48 41 36 35 35 35 37 42 41 41 35 29 27 36 38 40 39 38 40 47 38 45 37 36 30 41 46 58 73 71 68
50 45 44 43 44 49 51 51 47 46 43 42 39 38 40 41 39 38 37 34 42 42 47 47 54 51 49 47 53 46 48 37 44 44 47 55 71 79
52 50 47 47 50 56 56 53 49 50 49 49 44 45 46 44 42 36 41 44 47 50 56 58 58 58 54 59 60 60 60 56 47 46 52 51 57 72
57 56 55 53 59 61 61 60 56 56 55 54 52 52 49 44 43 44 49 53 59 62 61 64 63 60 64 65 68 68 64 64 57 54 49 51 55 66
61 61 59 58 65 66 65 64 60 60 60 56 56 59 53 52 52 56 55 59 63 67 68 71 68 70 75 77 77 71 70 71 67 62 54 50 57 60
65 64 62 66 68 69 69 67 67 66 64 64 63 62 58 56 57 57 61 66 72 76 75 77 76 73 76 73 71 72 79 77 75 71 66 65 64 65
69 67 68 71 71 72 72 73 71 68 69 65 69 65 64 65 63 61 60 63 63 69 66 71 69 70 73 72 74 75 73 75 74 78 77 75 72 70
68 66 72 74 74 74 74 73 71 73 72 72 70 70 68 67 63 64 63 63 66 69 69 70 72 72 72 73 74 74 72 73 74 74 73 70 67 71
71 72 77 77 75 72 75 73 74 74 72 70 72 70 67 67 66 68 73 74 76 78 78 74 79 78 79 81 83 81 78 77 75 74 71 69 70 72
71 76 76 77 75 76 74 76 77 77 74 76 73 71 71 72 74 78 82 81 79 79 82 74 77 79 83 84 84 79 74 71 71 70 68 67 67 70
77 77 77 81 79 78 76 74 73 74 80 92 79 75 77 79 82 85 82 78 76 73 75 68 65 63 66 70 69 65 59 56 56 57 58 58 61 62
76 77 80 82 78 76 79 78 76 79 86 97 89 82 82 85 91 90 83 71 64 59 58 57 57 53 51 50 56 54 45 46 45 46 46 49 51 53
81 78 81 75 73 77 72 75 80 90 99 100 95 84 88 92 88 82 74 66 60 56 53 49 48 48 45 43 44 49 38 38 36 40 41 43 45 44
78 81 75 73 79 81 80 84 88 95 101 100 101 92 91 85 78 70 64 59 56 51 47 45 42 42 39 39 39 40 32 33 29 35 37 40 40 41
78 76 72 78 81 82 83 87 94 99 101 97 97 93 88 78 68 62 58 53 51 47 42 40 38 38 38 37 38 37 31 30 27 31 34 34 34 38
70 69 75 81 83 83 86 93 99 101 101 108 101 91 81 72 65 60 56 50 46 44 41 37 34 33 34 34 34 33 32 29 25 27 31 32 32 35
68 73 78 84 93 89 90 95 97 104 108 110 93 83 77 68 63 59 54 50 45 41 39 37 36 32 30 29 29 32 30 28 25 25 27 29 30 34
70 78 83 88 89 89 96 97 104 107 100 93 83 77 69 62 59 55 52 48 43 41 36 36 36 33 32 27 23 30 28 26 26 23 26 29 30 34
75 82 86 85 86 95 97 99 105 106 93 82 77 71 62 57 54 51 47 43 40 37 34 33 34 30 31 26 21 23 27 24 25 24 23 28 32 33
81 82 83 87 92 93 98 104 108 92 81 75 73 65 57 52 49 48 45 40 38 35 33 31 31 27 29 23 20 21 24 22 23 23 23 28 31 34
80 83 87 89 98 102 102 104 106 87 79 73 68 61 54 50 47 45 44 39 36 34 31 30 28 26 26 19 18 19 20 20 22 21 21 25 29 34
79 86 89 95 99 96 97 102 97 82 74 73 67 58 53 50 48 45 43 38 36 32 29 29 25 24 23 17 17 16 18 20 21 21 19 23 26 31
Wind_Direction
340 339 338 337 334 335 333 331 327 325 325 313 312 314 303 306 308 304 288 265 249 275 272 280 257 271 275 283 276 263 260 262 250 239 241 244 245 245
338 335 337 339 337 333 330 332 328 326 324 317 313 310 305 305 308 305 306 288 268 258 263 259 282 279 280 272 279 280 283 267 250 250 241 237 240 242
335 334 335 335 334 333 331 333 329 325 324 326 317 306 306 307 308 300 298 272 285 273 270 273 271 279 280 277 288 287 284 287 251 246 242 243 239 237
333 334 332 332 332 333 331 331 325 322 322 324 319 313 308 305 310 294 285 280 282 278 275 278 281 281 276 283 287 288 288 279 277 247 241 238 238 238
330 332 331 328 331 330 329 329 324 321 321 322 316 312 308 310 304 295 289 272 277 276 279 278 276 274 277 280 281 281 278 282 274 262 250 240 236 234
329 330 330 327 327 327 326 324 321 319 319 313 311 312 308 308 305 300 287 282 275 275 275 275 278 274 276 279 281 271 271 270 270 268 256 252 239 234
326 325 325 325 324 323 322 321 319 318 317 315 312 310 305 304 303 294 287 284 279 277 279 274 276 276 274 274 268 268 272 270 268 266 264 260 255 248
322 323 322 322 321 321 319 320 320 318 317 314 311 311 312 309 305 301 295 290 286 284 284 282 281 277 275 274 272 270 271 270 270 269 268 266 258 252
320 318 319 319 319 318 319 316 315 317 318 315 315 315 313 311 306 302 300 295 291 288 287 286 285 283 281 278 276 274 273 271 270 268 265 264 258 251
315 315 315 318 319 317 314 316 316 319 318 315 316 315 314 312 309 308 307 303 296 290 286 283 282 281 280 278 278 278 277 275 273 270 267 261 255 247
316 315 315 316 315 312 314 318 321 322 323 321 316 315 314 314 313 310 306 301 297 292 288 286 282 281 279 278 278 277 276 272 269 265 260 257 253 248
315 314 313 313 314 315 319 322 323 322 325 328 319 314 316 316 312 308 306 303 298 294 289 288 286 282 280 279 278 277 273 269 264 260 256 252 249 245
314 312 310 312 314 318 318 320 320 324 325 326 326 318 317 314 313 314 311 307 303 298 294 293 290 286 283 281 281 276 273 268 260 255 251 247 244 242
311 308 310 314 317 319 320 319 323 327 327 327 325 319 318 316 314 312 311 309 305 300 297 295 292 288 285 280 272 275 273 262 252 249 244 243 242 240
305 308 313 315 318 317 318 322 325 326 328 326 326 320 317 317 316 314 313 309 303 300 298 295 292 290 289 284 279 276 270 260 252 247 243 239 234 233
304 309 314 317 317 318 321 321 323 325 326 325 323 319 318 317 317 315 315 312 307 303 298 296 293 291 291 286 279 274 269 260 247 246 242 234 228 228
306 311 312 314 317 318 319 320 323 325 325 323 321 320 320 321 319 317 315 313 310 308 306 299 294 292 289 282 273 268 262 253 245 236 237 234 225 226
311 311 311 312 314 316 317 322 325 324 322 321 320 322 322 320 318 317 317 317 314 311 308 304 300 299 293 281 270 265 255 251 242 234 236 236 224 225
308 305 305 311 312 314 316 321 323 324 322 322 322 322 321 318 316 315 315 315 314 312 309 304 302 304 299 286 267 256 254 245 242 236 231 235 229 226
302 305 308 311 311 315 322 323 324 323 323 322 323 322 319 317 316 317 315 314 314 312 309 304 303 305 295 286 269 251 248 238 238 240 234 235 228 222
298 306 305 306 308 314 318 321 323 323 323 323 324 321 318 316 316 317 317 317 316 313 308 307 304 303 290 284 264 250 242 240 233 236 232 232 225 216
297 303 305 306 311 313 316 320 321 323 323 324 323 319 317 318 320 320 321 319 318 315 311 308 306 301 289 279 259 245 231 232 237 236 230 232 226 214
297 302 305 306 309 316 318 319 321 323 323 325 322 318 319 323 322 323 322 320 319 316 312 310 307 297 286 273 254 233 219 223 230 242 234 229 220 211
Height
10918 10913 10907 10903 10899 10895 10890 10885 10879 10872 10867 10862 10857 10850 10844 10839 10838 10838 10833 10830 10830 10829 10828 10827 10828 10827 10826 10825 10825 10824 10823 10822 10823 10828 10830 10835 10841 10847
10910 10905 10901 10894 10890 10884 10879 10872 10867 10863 10860 10854 10847 10841 10837 10831 10824 10821 10821 10819 10817 10817 10816 10814 10814 10814 10813 10811 10811 10811 10812 10810 10810 10810 10812 10817 10822 10828
10900 10895 10891 10887 10881 10875 10869 10862 10855 10848 10844 10842 10835 10831 10827 10821 10815 10808 10804 10804 10804 10804 10802 10801 10798 10798 10796 10795 10794 10793 10793 10793 10795 10795 10795 10797 10803 10808
10891 10885 10879 10876 10872 10865 10859 10853 10846 10840 10833 10826 10823 10817 10811 10807 10800 10796 10793 10789 10786 10786 10784 10781 10778 10776 10776 10774 10772 10770 10771 10773 10775 10775 10775 10778 10781 10787
10880 10874 10867 10860 10855 10851 10845 10839 10831 10823 10816 10811 10807 10802 10795 10791 10787 10784 10780 10775 10769 10766 10764 10761 10759 10757 10755 10753 10751 10750 10748 10749 10749 10753 10756 10756 10759 10763
10867 10862 10858 10852 10845 10839 10832 10826 10821 10812 10806 10801 10793 10784 10777 10773 10768 10763 10758 10754 10749 10746 10744 10740 10737 10736 10732 10728 10726 10724 10722 10723 10724 10726 10728 10729 10732 10736
10860 10854 10848 10841 10835 10828 10821 10814 10808 10799 10791 10782 10775 10770 10764 10761 10756 10750 10742 10735 10727 10723 10722 10716 10715 10710 10705 10703 10701 10697 10696 10695 10695 10698 10698 10698 10702 10710
10849 10843 10837 10830 10824 10816 10805 10798 10790 10782 10775 10767 10757 10748 10741 10735 10730 10724 10719 10712 10704 10695 10696 10688 10686 10683 10679 10676 10673 10671 10668 10667 10665 10664 10665 10666 10671 10676
10841 10832 10825 10820 10811 10803 10794 10784 10776 10765 10756 10747 10738 10729 10721 10714 10709 10702 10693 10687 10678 10667 10667 10662 10653 10651 10647 10643 10639 10639 10639 10638 10636 10635 10635 10637 10640 10644
10828 10820 10812 10806 10797 10788 10780 10770 10758 10748 10740 10730 10721 10709 10701 10693 10686 10679 10670 10663 10653 10642 10638 10641 10625 10623 10616 10612 10606 10605 10606 10606 10605 10604 10604 10605 10608 10614
10813 10803 10796 10790 10784 10775 10763 10750 10740 10730 10722 10714 10704 10694 10683 10674 10664 10654 10642 10636 10628 10614 10601 10608 10600 10597 10588 10582 10576 10574 10576 10575 10573 10572 10573 10575 10580 10584
10800 10790 10781 10772 10764 10754 10745 10735 10725 10715 10704 10693 10684 10674 10663 10651 10639 10629 10616 10604 10593 10586 10570 10573 10569 10564 10560 10551 10545 10543 10545 10545 10545 10546 10548 10550 10552 10557
10783 10777 10768 10758 10747 10738 10728 10718 10708 10698 10687 10675 10661 10649 10638 10626 10609 10593 10584 10575 10566 10558 10550 10545 10541 10538 10536 10533 10520 10518 10525 10523 10524 10525 10527 10529 10533 10538
10770 10763 10754 10744 10733 10724 10714 10703 10691 10677 10665 10652 10639 10626 10613 10601 10586 10571 10558 10550 10543 10538 10531 10528 10523 10517 10516 10514 10510 10501 10506 10505 10508 10508 10511 10513 10517 10524
10755 10745 10736 10727 10718 10709 10698 10687 10675 10663 10648 10633 10621 10607 10593 10580 10566 10551 10541 10532 10524 10520 10515 10511 10507 10501 10498 10494 10492 10487 10490 10489 10494 10494 10497 10500 10507 10512
10741 10730 10720 10712 10704 10693 10682 10671 10659 10645 10631 10616 10602 10587 10573 10559 10547 10536 10526 10517 10508 10502 10500 10496 10492 10488 10483 10481 10477 10474 10477 10477 10481 10482 10485 10490 10496 10500
10725 10716 10707 10699 10690 10679 10667 10656 10643 10628 10613 10598 10583 10567 10551 10537 10527 10520 10512 10504 10497 10489 10484 10481 10479 10477 10473 10469 10465 10465 10465 10466 10471 10473 10475 10480 10487 10491
10710 10701 10693 10685 10675 10665 10653 10640 10626 10613 10597 10582 10563 10547 10534 10523 10514 10506 10498 10490 10484 10478 10472 10468 10464 10463 10461 10457 10456 10453 10455 10457 10461 10464 10467 10471 10478 10482
10696 10687 10680 10673 10661 10649 10638 10625 10612 10597 10579 10563 10547 10533 10522 10512 10504 10496 10488 10480 10473 10467 10463 10457 10452 10451 10447 10446 10446 10444 10445 10449 10451 10455 10460 10464 10470 10476
10683 10675 10665 10656 10646 10637 10624 10608 10593 10578 10564 10550 10536 10524 10513 10504 10495 10486 10478 10471 10464 10458 10453 10448 10444 10443 10437 10436 10436 10437 10437 10441 10443 10448 10453 10456 10462 10468
10669 10662 10652 10641 10633 10624 10611 10599 10583 10567 10553 10539 10526 10514 10504 10496 10488 10479 10469 10462 10455 10450 10445 10441 10437 10435 10430 10429 10429 10430 10430 10434 10439 10443 10446 10450 10455 10460
10654 10647 10638 10625 10617 10609 10595 10581 10565 10552 10539 10526 10515 10505 10496 10487 10478 10469 10460 10452 10447 10442 10438 10433 10430 10427 10423 10423 10423 10425 10427 10430 10433 10437 10442 10445 10449 10456
10638 10629 10621 10610 10601 10593 10579 10566 10553 10540 10526 10513 10501 10492 10483 10475 10467 10460 10452 10446 10441 10436 10431 10426 10424 10420 10417 10418 10418 10422 10424 10427 10430 10433 10438 10441 10446 10454